STARLINK-5137 (53975 NORAD) Tracking and Keplerian Element Data

This shows tracking and keplerian element data for the satellite.

Feedback or suggestion? Click here.




ElementValue
Catalog53975
NameSTARLINK-5137
Epoch Orbit130
Epoch Day324.91667824
Epoch Year2022
RAAN228.1069
Inclination53.2177
Eccentricity0.0001702
Argument of Perigee37.2857
Mean Anonmoly356.3292
Mean Motion15.22757698
Decay Rate-0.01150788
L11 53975U 22125M 22324.91667824 -.01150788 00000+0 -52754-1 0 9992
L22 53975 53.2177 228.1069 0001702 37.2857 356.3292 15.22757698 1302



Live tracking and technical data element details for STARLINK-5137 (NORAD 53975). STARLINK-5137 can be tracked NOW for your location showing map with azimuth and elevation plus other details from your city location.







IsCatalogInMostPopularTable: catalog: 53975, numindb: 2
Update: records affected: 1



GetName: 53975 STARLINK-5137

Hit Count: updated at: Mon, 28 Nov 2022 21:17:04 GMT